STARLINK-2298, 48022

Orbit data source: Space-Track

STARLINK-2298, 48022 is a payload satellite owned by SpaceX/Seattle (US) in LEO that was launched on Wed, 24 Mar 2021 UTC via an FALCON 9 launch vehicle from the Air Force Eastern Test Range (AFETR). Payload-class satellites include a variety of spacecraft equipped with specific instruments for various scientific and technological missions. These include communications satellites like Starlink; space stations such as the ISS; scientific satellites like the Hubble; Earth observation satellites from companies like Planet Labs, Umbra, and HawkEye 360; GPS; miniature CubeSats for education and research; and military/defense satellites.

Loading next visibility...
Identifier
48022, 2021-024AX
Orbit
LEO
Country
Flag of USUS
Related business
Manufacturer
SpaceX/Seattle
Mission
Partially operational Commercial Communications
Bus & Motor
STARLINK, Unknown motor
Mass
260 kg wet, ~248 kg dry
Launch date (UTC)
2021-03-24 (5 years ago)
Launch vehicle
FALCON 9
Launch site
Air Force Eastern Test Range (AFETR)
Object type
Payload
Rocket body
Debris
Shape & HBR
Box + 1 Pan, 10.1 m
Radar Cross Section
13.562 m², Large (>1 m²)

Expand to show TLE details & history
Last TLE update: 13 hours ago

TLE from 13 hours ago
0 STARLINK-2298
1 48022U 21024AX  26130.01694207  .00043046  00000-0  84026-3 0  9996
2 48022  53.1253  42.7511 0003312 131.2627 228.8667 15.47082711284074
Epoch: 2026-05-10T00:24Z
TLE epoch observation values (Epoch: 2026-05-10T00:24:23.794Z)
Latitude
0.00001°
Longitude
168.8259°
Altitude
427.65 km
Speed
7.655 km/s
True Right ascension
02h 51m 00s
True Declination
0° 00' 00"
Sunlit
Object was in daylight at epoch
Visualization orbit readout
Latitude
Unknown
Longitude
Unknown
Altitude
Unknown
Speed
Unknown
Apparent Right ascension
Unknown
Apparent Declination
Unknown
Sunlit
N/A
Visualization observer readout
Local Sidereal Time
21:26:42
Azimuth
Unknown
Elevation
Unknown
Doppler factor
Unknown
Orbital elements
Apogee altitude
427.783 km
Perigee altitude
423.276 km
Semi-major axis
6,803.666 km
Eccentricity
0.00033
Inclination
53.1253°
RAAN
42.7511°
Arg. of periapsis
131.2627°
True anomaly
228.83812°
Mean anomaly
228.8667°
Eccentric anomaly
228.85241°
Mean motion
3.86749 °/min
Orbital period
93.08 mins
BSTAR
0.00084026
Loading maneuver chart data...
Computing Atmospheric mass density...

Documentation

Showing up to 5 results
|